星链-30470 (STARLINK-30470 )

导读

STARLINK-30470是美国SpaceX公司星链星座中的一颗V2 Mini卫星,于北京时间2023年9月20日,在佛罗里达州卡纳维拉尔角由已经17次复用的猎鹰九号B1060火箭发射升空,属于星链6-17批次任务。作为星链低轨互联网星座的组成部分,它将为全球提供高速低延迟宽带互联网服务,尤其覆盖基础设施匮乏地区。

基本信息
目录编号:
57892
目录名称:
STARLINK-30470
国际标识:
2023-146B
轨道中心:
EARTH
卫星名称:
星链-30470
卫星全名:
星链-30470 (STARLINK-30470 )
卫星状态:
在轨 (已飞行1087 天)
发射日期:
2023-09-20 UTC
国别 :
美国 (US)
星等 :
--
该卫星已列入 空间交会检测服务 Space Conjunction Data Service (SCDS) ,当前飞行风险评估等级: 高风险
轨道信息
数据来源 国际轨道数据
星历时间: 2026-09-11T14:47:50+0800
11小时前
查看轨道信息
半长轴: 6861.207km
偏心率: 0.0001124
轨道倾角: 43.002°
近地点辐角 263.293°
升交点赤经 345.791°
平近点角 96.779°
近地点: 482.298km
远地点: 483.842km
周期: 94.267分钟
每日圈数: 15.275733
详细信息
固有亮度:
5
最大亮度:
0.3
卫星平台:
Starlink v2.0 mini
覆盖范围:
全球
运营商:
太空探索技术公司
运营商所在国:
美国
制造商(研发单位):
太空探索技术公司
制造商所在国:
美国
使用方式:
暂无
卫星简介
星链(Starlink)计划是由太空探索技术公司(SpaceX)提出的一个巨型低轨卫星互联网星座项目,计划在2019年至2024年间在太空搭建由约1.2万颗卫星组成的“星链”网络,其中1584颗将部署在地球上空550千米处的近地轨道,并从2020年开始工作。该卫星仍在工作。
2D轨道图
3D轨道图
轨道高度分析图
轨道倾角分析图
轨道综合分析图
查看轨道综合分析图
与全量物体交会距离演化趋势
与全量物体交会风险概率演化趋势